Regional Weather Roundup
Issued by NWS

Home | Current Version | Previous Version | Graphics & Text | Print | Product List | Glossary On
Versions: 1 2 3 4 5 6 7 8 9 10 11 12 13 14 15 16 17 18 19 20 21 22 23 24 25 26 27 28 29 30 31 32 33 34 35 36 37 38 39 40 41 42 43 44 45 46 47 48 49 50
965
ASUS43 KTOP 240059
RWRKS

WEATHER ROUNDUP FOR KANSAS
NATIONAL WEATHER SERVICE GOODLAND KS
800 PM CDT MON MAY 23 2016

NOTE:  "FAIR" INDICATES FEW OR NO CLOUDS BELOW 12,000 FEET WITH NO
SIGNIFICANT WEATHER AND/OR OBSTRUCTIONS TO VISIBILITY.

KSZ001>006-013>018-027>032-041>047-240200-
NORTHWEST KANSAS

CITY           SKY/WX    TMP DP  RH WIND       PRES   REMARKS
GOODLAND       SUNNY     73  49  42 SE7       29.79F
HAYS           CLEAR     77  63  61 S10       29.75S
HILL CITY      CLEAR     77  63  61 S6        29.75S
RUSSELL        MOCLDY    76  66  71 S14       29.74S
$$

KSZ061>065-074>080-084>089-240200-
SOUTHWEST KANSAS

CITY           SKY/WX    TMP DP  RH WIND       PRES   REMARKS
DODGE CITY     CLEAR     76  68  76 SE16      29.73F
ELKHART          N/A     80  51  36 SE13        N/A
GARDEN CITY    CLEAR     81  57  43 SE9       29.72F
GREAT BEND     CLEAR     75  63  64 S15G21    29.75S
LIBERAL        CLEAR     82  52  34 SE9       29.73F
$$

KSZ066>073-081>083-090>101-240200-
SOUTHEAST KANSAS

CITY           SKY/WX    TMP DP  RH WIND       PRES   REMARKS
CHANUTE        PTCLDY    69  62  78 S17G23    29.86R
COFFEYVILLE    PTCLDY    68  62  81 SE9       29.85F
HUTCHINSON     CLOUDY    71  63  75 SE14G23   29.78S
MEDICINE LODGE   N/A     74  66  76 SE12G22   29.74F
NEWTON         CLOUDY    70  57  64 S15       29.83S
PARSONS        PTCLDY    68  63  84 S7        29.87S
WICHITA INTL   MOCLDY    71  63  75 SE17      29.79S
WICHITA JABRA  CLOUDY    69  61  75 SE13      29.80S
WINFIELD       PTCLDY    69  63  81 SE13      29.82S
$$

KSZ007>012-019>026-033>040-048>060-102>105-240200-
NORTHEAST KANSAS

CITY           SKY/WX    TMP DP  RH WIND       PRES   REMARKS
CONCORDIA      PTCLDY    72  61  68 S15       29.76S
EMPORIA        CLOUDY    68  61  78 S10       29.84R
LAWRENCE       MOCLDY    67  63  87 SE3       29.84R
MANHATTAN      CLOUDY    73  60  63 S8        29.79S
OLATHE IND     PTCLDY    67  62  84 SE5       29.85R
OLATHE EXE     MOCLDY    66  61  84 CALM      29.85R
SALINA         CLOUDY    73  61  65 S15G22    29.78R
TOPEKA BILLARD CLOUDY    70  60  70 S9        29.83R
TOPEKA FORBES  CLOUDY    70  61  73 SE8       29.83R
$$




USA.gov is the U.S. government's official web portal to all federal, state and local government web resources and services.